Radiation Dose at Monitoring Post of Fukushima Daini Nuclear Power Station
Date,Time,MP-1(microSv/h),MP-2(microSv/h),MP-3(microSv/h),MP-4(microSv/h),MP-5(microSv/h),MP-6(microSv/h),MP-7(microSv/h),Wind Direction,Wind Velocity(m/s),Rain
2015/04/15,00:00,0.516,0.323,0.529,0.496,0.536,0.241,0.210,north,2.7,Yes
2015/04/15,00:10,0.518,0.320,0.531,0.492,0.539,0.240,0.210,north-northwest,2.9,Yes
2015/04/15,00:20,0.513,0.321,0.529,0.492,0.537,0.239,0.210,north-northwest,4.0,Yes
2015/04/15,00:30,0.517,0.322,0.526,0.492,0.536,0.239,0.209,north-northeast,4.2,Yes
2015/04/15,00:40,0.515,0.319,0.529,0.489,0.538,0.239,0.210,north,4.1,Yes
2015/04/15,00:50,0.511,0.319,0.524,0.489,0.536,0.237,0.209,north,4.2,Yes
2015/04/15,01:00,0.514,0.320,0.525,0.486,0.534,0.239,0.208,north,5.8,Yes
2015/04/15,01:10,0.510,0.319,0.524,0.488,0.538,0.237,0.209,north,5.4,Yes
2015/04/15,01:20,0.512,0.319,0.527,0.491,0.534,0.239,0.209,north,5.3,Yes
2015/04/15,01:30,0.513,0.319,0.528,0.487,0.537,0.239,0.208,north,6.2,Yes
2015/04/15,01:40,0.512,0.319,0.524,0.489,0.536,0.237,0.209,north-northwest,6.4,Yes
2015/04/15,01:50,0.516,0.320,0.527,0.490,0.536,0.238,0.208,north-northwest,6.4,Yes
2015/04/15,02:00,0.514,0.319,0.528,0.488,0.538,0.238,0.210,north-northwest,5.3,Yes
2015/04/15,02:10,0.515,0.320,0.527,0.492,0.536,0.238,0.209,north-northwest,5.5,Yes
2015/04/15,02:20,0.515,0.320,0.531,0.493,0.536,0.238,0.209,north-northwest,6.2,No
2015/04/15,02:30,0.512,0.319,0.527,0.492,0.539,0.239,0.209,north-northwest,6.7,No
2015/04/15,02:40,0.518,0.320,0.530,0.493,0.536,0.238,0.209,northwest,7.3,No
2015/04/15,02:50,0.515,0.320,0.530,0.492,0.538,0.238,0.209,northwest,7.2,No
2015/04/15,03:00,0.517,0.318,0.529,0.496,0.536,0.237,0.209,north-northwest,6.7,No
2015/04/15,03:10,0.516,0.322,0.533,0.495,0.536,0.238,0.209,northwest,6.7,No
2015/04/15,03:20,0.515,0.319,0.532,0.494,0.539,0.238,0.209,northwest,6.4,No
2015/04/15,03:30,0.518,0.320,0.532,0.496,0.538,0.238,0.209,north-northwest,6.0,No
2015/04/15,03:40,0.514,0.320,0.534,0.495,0.538,0.238,0.210,north-northwest,4.8,No
2015/04/15,03:50,0.517,0.320,0.531,0.495,0.537,0.238,0.209,north-northwest,3.5,No
2015/04/15,04:00,0.516,0.322,0.536,0.495,0.537,0.238,0.209,northwest,1.9,No
2015/04/15,04:10,0.515,0.320,0.530,0.494,0.540,0.239,0.209,west-northwest,0.8,No
2015/04/15,04:20,0.519,0.320,0.538,0.497,0.537,0.239,0.210,-,CALM,No
2015/04/15,04:30,0.515,0.321,0.532,0.495,0.542,0.238,0.209,northwest,0.6,No
2015/04/15,04:40,0.518,0.320,0.535,0.499,0.539,0.238,0.210,north-northwest,1.1,No
2015/04/15,04:50,0.516,0.322,0.536,0.497,0.542,0.238,0.209,south,1.1,No
2015/04/15,05:00,0.518,0.320,0.532,0.499,0.542,0.238,0.209,south-southeast,2.4,No
2015/04/15,05:10,0.519,0.320,0.535,0.498,0.538,0.239,0.209,south-southeast,3.2,No
2015/04/15,05:20,0.518,0.321,0.533,0.495,0.541,0.239,0.210,south-southeast,3.8,No
2015/04/15,05:30,0.520,0.320,0.536,0.499,0.540,0.240,0.209,south-southeast,3.7,No
2015/04/15,05:40,0.518,0.321,0.538,0.496,0.543,0.239,0.209,southeast,4.7,No
2015/04/15,05:50,0.521,0.320,0.534,0.498,0.540,0.238,0.209,southeast,3.3,No
2015/04/15,06:00,0.519,0.320,0.538,0.499,0.539,0.240,0.209,east,2.8,No
2015/04/15,06:10,0.522,0.322,0.535,0.498,0.544,0.240,0.210,southeast,3.6,No
2015/04/15,06:20,0.517,0.320,0.538,0.501,0.541,0.240,0.210,east,2.9,Yes
2015/04/15,06:30,0.519,0.322,0.534,0.497,0.543,0.239,0.210,east,2.2,No
2015/04/15,06:40,0.520,0.320,0.538,0.501,0.542,0.241,0.210,northeast,2.5,No
2015/04/15,06:50,0.520,0.321,0.538,0.498,0.541,0.241,0.210,north-northeast,2.0,No
2015/04/15,07:00,0.522,0.322,0.535,0.499,0.544,0.240,0.211,northeast,2.2,No
2015/04/15,07:10,0.517,0.321,0.537,0.500,0.541,0.239,0.210,southeast,1.3,No
2015/04/15,07:20,0.522,0.322,0.533,0.499,0.544,0.240,0.210,southeast,3.1,No
2015/04/15,07:30,0.518,0.322,0.537,0.500,0.539,0.240,0.209,south-southeast,5.2,No
2015/04/15,07:40,0.523,0.319,0.536,0.497,0.545,0.240,0.212,south,6.8,No
2015/04/15,07:50,0.518,0.320,0.539,0.499,0.541,0.241,0.211,south-southwest,4.0,No
2015/04/15,08:00,0.524,0.323,0.537,0.497,0.547,0.240,0.211,southwest,2.8,No
2015/04/15,08:10,0.521,0.321,0.539,0.503,0.541,0.242,0.212,west-northwest,1.1,No
2015/04/15,08:20,0.522,0.320,0.538,0.496,0.546,0.241,0.210,west-northwest,1.0,No
2015/04/15,08:30,0.520,0.322,0.538,0.499,0.540,0.242,0.211,north-northwest,0.7,No
2015/04/15,08:40,0.522,0.319,0.537,0.499,0.545,0.241,0.211,north-northwest,1.6,No
2015/04/15,08:50,0.516,0.322,0.539,0.495,0.540,0.241,0.211,north,1.9,No
2015/04/15,09:00,0.522,0.321,0.537,0.501,0.545,0.240,0.212,north,1.5,No
2015/04/15,09:10,0.519,0.322,0.538,0.498,0.541,0.241,0.211,north-northwest,1.0,No
2015/04/15,09:20,0.523,0.322,0.536,0.501,0.541,0.241,0.212,north-northeast,1.0,No
2015/04/15,09:30,0.523,0.321,0.541,0.504,0.546,0.241,0.212,north,1.0,No
2015/04/15,09:40,0.520,0.324,0.536,0.498,0.541,0.241,0.211,northeast,2.3,No
2015/04/15,09:50,0.523,0.321,0.541,0.498,0.539,0.241,0.214,east-northeast,1.4,No
2015/04/15,10:00,0.521,0.323,0.536,0.504,0.547,0.242,0.213,east-northeast,1.8,No
2015/04/15,10:10,0.526,0.323,0.541,0.501,0.542,0.243,0.214,east-northeast,2.5,No
2015/04/15,10:20,0.521,0.324,0.537,0.507,0.551,0.243,0.213,east-northeast,1.9,No
2015/04/15,10:30,0.527,0.324,0.543,0.504,0.546,0.243,0.214,east-northeast,1.8,No
2015/04/15,10:40,0.522,0.324,0.537,0.509,0.549,0.242,0.213,northeast,2.7,No
2015/04/15,10:50,0.525,0.325,0.543,0.505,0.550,0.243,0.214,east-northeast,2.2,No
2015/04/15,11:00,0.521,0.321,0.542,0.499,0.541,0.242,0.213,east,2.3,No
2015/04/15,11:10,0.517,0.324,0.536,0.506,0.544,0.241,0.212,east,2.9,No
2015/04/15,11:20,0.526,0.325,0.541,0.505,0.548,0.242,0.215,east,1.7,No
2015/04/15,11:30,0.523,0.320,0.543,0.500,0.544,0.243,0.213,southeast,2.4,No
2015/04/15,11:40,0.519,0.325,0.536,0.505,0.546,0.243,0.213,south-southeast,3.2,No
2015/04/15,11:50,0.527,0.324,0.544,0.507,0.550,0.243,0.214,south-southeast,3.1,No
2015/04/15,12:00,0.523,0.323,0.544,0.502,0.543,0.242,0.215,south,3.3,No
2015/04/15,12:10,0.520,0.327,0.539,0.506,0.548,0.245,0.215,south,3.1,No
2015/04/15,12:20,0.530,0.325,0.540,0.506,0.551,0.244,0.215,south,2.7,No
2015/04/15,12:30,0.522,0.323,0.546,0.504,0.546,0.243,0.214,south-southeast,2.7,No
2015/04/15,12:40,0.526,0.325,0.544,0.504,0.542,0.245,0.216,south,5.4,No
2015/04/15,12:50,0.528,0.325,0.540,0.509,0.550,0.245,0.215,south,6.2,No
2015/04/15,13:00,0.522,0.321,0.536,0.505,0.549,0.244,0.216,south,6.5,No
2015/04/15,13:10,0.526,0.325,0.548,0.505,0.544,0.244,0.215,south,6.6,No
2015/04/15,13:20,0.529,0.326,0.545,0.512,0.552,0.244,0.215,south,5.8,No
2015/04/15,13:30,0.526,0.323,0.540,0.509,0.551,0.244,0.215,south,5.1,No
2015/04/15,13:40,0.530,0.328,0.548,0.502,0.546,0.246,0.215,south,5.6,No
2015/04/15,13:50,0.524,0.326,0.549,0.510,0.542,0.244,0.216,south-southeast,4.9,No
2015/04/15,14:00,0.531,0.322,0.541,0.510,0.552,0.244,0.215,south-southeast,5.8,No
2015/04/15,14:10,0.527,0.324,0.543,0.504,0.546,0.245,0.217,south-southeast,7.3,No
2015/04/15,14:20,0.530,0.326,0.552,0.511,0.547,0.243,0.215,south-southeast,6.9,No
2015/04/15,14:30,0.528,0.327,0.544,0.509,0.554,0.244,0.216,south-southeast,6.9,No
2015/04/15,14:40,0.525,0.325,0.548,0.508,0.549,0.244,0.216,south-southeast,6.7,No
2015/04/15,14:50,0.529,0.324,0.547,0.512,0.544,0.243,0.215,south-southeast,6.9,No
2015/04/15,15:00,0.526,0.326,0.541,0.506,0.552,0.245,0.215,south-southeast,8.3,No
2015/04/15,15:10,0.528,0.325,0.548,0.511,0.546,0.244,0.216,south,9.0,No
2015/04/15,15:20,0.527,0.327,0.548,0.509,0.554,0.245,0.217,south,9.2,No
2015/04/15,15:30,0.530,0.323,0.547,0.514,0.550,0.244,0.216,south,10.8,No
2015/04/15,15:40,0.525,0.328,0.549,0.508,0.551,0.245,0.217,south,10.4,No
2015/04/15,15:50,0.530,0.325,0.547,0.513,0.551,0.244,0.215,south-southwest,9.1,No
2015/04/15,16:00,0.524,0.327,0.550,0.507,0.551,0.245,0.217,south-southwest,7.0,No
2015/04/15,16:10,0.531,0.325,0.547,0.513,0.552,0.247,0.216,west-southwest,2.2,No
2015/04/15,16:20,0.527,0.328,0.551,0.509,0.550,0.245,0.215,northwest,2.3,No
2015/04/15,16:30,0.531,0.326,0.547,0.512,0.548,0.245,0.216,north-northeast,3.3,No
2015/04/15,16:40,0.526,0.326,0.551,0.507,0.548,0.244,0.215,north-northeast,3.3,No
2015/04/15,16:50,0.530,0.326,0.547,0.512,0.550,0.246,0.216,north,3.8,No
2015/04/15,17:00,0.526,0.327,0.551,0.508,0.548,0.245,0.217,north,3.0,No
2015/04/15,17:10,0.530,0.325,0.545,0.513,0.551,0.246,0.216,north,2.3,No
2015/04/15,17:20,0.527,0.328,0.551,0.508,0.547,0.246,0.216,north-northeast,2.1,No
2015/04/15,17:30,0.530,0.325,0.545,0.514,0.554,0.246,0.217,north,4.3,No
2015/04/15,17:40,0.529,0.329,0.551,0.509,0.551,0.245,0.216,north,4.4,No
2015/04/15,17:50,0.529,0.326,0.548,0.512,0.551,0.246,0.216,north,4.8,No
2015/04/15,18:00,0.528,0.328,0.550,0.509,0.548,0.244,0.215,north,6.1,No
2015/04/15,18:10,0.533,0.325,0.546,0.513,0.550,0.246,0.216,northwest,7.5,Yes
2015/04/15,18:20,0.525,0.325,0.546,0.503,0.546,0.245,0.216,west-northwest,8.1,Yes
2015/04/15,18:30,0.526,0.326,0.543,0.505,0.543,0.246,0.217,west,8.4,Yes
2015/04/15,18:40,0.529,0.327,0.543,0.504,0.548,0.247,0.218,west-northwest,8.5,Yes
2015/04/15,18:50,0.530,0.329,0.547,0.507,0.548,0.247,0.217,west-northwest,9.4,Yes
2015/04/15,19:00,0.530,0.329,0.546,0.509,0.549,0.249,0.220,west-northwest,9.7,Yes
2015/04/15,19:10,0.531,0.330,0.545,0.509,0.549,0.250,0.220,west-northwest,9.5,Yes
2015/04/15,19:20,0.532,0.333,0.550,0.509,0.550,0.251,0.222,west-northwest,9.6,Yes
2015/04/15,19:30,0.536,0.333,0.549,0.512,0.550,0.253,0.225,northwest,10.3,Yes
2015/04/15,19:40,0.533,0.334,0.547,0.510,0.551,0.254,0.225,northwest,11.4,Yes
2015/04/15,19:50,0.535,0.337,0.551,0.511,0.554,0.257,0.226,northwest,8.8,Yes
2015/04/15,20:00,0.538,0.336,0.551,0.514,0.553,0.254,0.226,northwest,9.7,No
2015/04/15,20:10,0.535,0.334,0.549,0.510,0.553,0.254,0.227,northwest,9.4,No
2015/04/15,20:20,0.535,0.334,0.550,0.508,0.552,0.252,0.224,north-northwest,8.1,No
2015/04/15,20:30,0.535,0.333,0.548,0.508,0.550,0.252,0.222,northwest,7.2,Yes
2015/04/15,20:40,0.531,0.330,0.546,0.505,0.550,0.250,0.223,northwest,7.4,Yes
2015/04/15,20:50,0.532,0.331,0.549,0.506,0.550,0.250,0.220,northwest,7.6,Yes
2015/04/15,21:00,0.532,0.330,0.546,0.509,0.547,0.251,0.222,north-northwest,7.7,Yes
2015/04/15,21:10,0.532,0.331,0.547,0.507,0.554,0.253,0.222,north-northwest,8.2,Yes
2015/04/15,21:20,0.536,0.333,0.552,0.509,0.554,0.256,0.226,north,5.3,Yes
2015/04/15,21:30,0.536,0.337,0.551,0.512,0.553,0.256,0.227,north,4.9,Yes
2015/04/15,21:40,0.538,0.336,0.550,0.512,0.556,0.259,0.228,north,3.8,Yes
2015/04/15,21:50,0.541,0.340,0.553,0.514,0.558,0.258,0.228,north,3.9,Yes
2015/04/15,22:00,0.537,0.338,0.551,0.515,0.555,0.258,0.226,north,4.9,Yes
2015/04/15,22:10,0.536,0.335,0.549,0.511,0.557,0.255,0.225,north,6.0,No
2015/04/15,22:20,0.536,0.333,0.551,0.511,0.554,0.254,0.224,north-northwest,5.8,No
2015/04/15,22:30,0.532,0.333,0.547,0.509,0.549,0.251,0.224,north-northwest,4.5,No
2015/04/15,22:40,0.531,0.331,0.548,0.508,0.551,0.250,0.220,north-northwest,4.9,No
2015/04/15,22:50,0.532,0.330,0.546,0.504,0.547,0.248,0.219,north-northwest,4.3,Yes
2015/04/15,23:00,0.528,0.329,0.545,0.505,0.546,0.249,0.218,north-northwest,3.6,No
2015/04/15,23:10,0.530,0.328,0.545,0.504,0.547,0.246,0.217,north-northwest,2.9,No
2015/04/15,23:20,0.528,0.329,0.544,0.502,0.545,0.246,0.216,north,1.9,No
2015/04/15,23:30,0.527,0.326,0.542,0.505,0.542,0.245,0.216,north,1.5,No
2015/04/15,23:40,0.528,0.325,0.546,0.502,0.545,0.244,0.215,north-northeast,2.1,No
2015/04/15,23:50,0.525,0.326,0.543,0.502,0.545,0.244,0.214,-,CALM,No
